Helicity
132 107 71 52 94 62 47 9 52 137 160 168 161 132 141 130 119 75 121 195 149 63 55 83 70 63 61 66 83 92 89 82 72 68 61 56 59 64 74 77 80 77 79 84 94 110 115 111 106
141 187 64 80 111 83 47 3 72 101 150 233 256 133 131 58 95 85 123 113 92 87 79 73 58 47 53 66 73 71 69 65 64 59 62 70 80 87 85 80 76 74 68 64 64 68 90 84 79
152 173 108 105 93 76 37 35 188 247 195 180 176 222 139 66 60 73 103 164 124 182 87 59 45 48 57 63 64 61 57 54 58 64 77 86 87 86 81 74 70 68 66 58 51 49 39 62 63
71 151 122 153 115 49 71 64 188 211 137 90 131 148 167 199 69 119 128 82 169 142 85 58 51 53 55 59 60 58 57 57 57 69 83 82 76 68 61 54 51 52 48 50 45 47 47 38 36
66 165 162 137 82 99 69 138 149 136 107 112 100 92 123 205 123 117 74 37 146 94 66 63 55 56 57 59 59 60 56 56 64 71 72 69 60 51 42 38 38 40 38 31 31 25 25 27 35
138 147 173 124 95 90 69 98 86 47 61 122 176 178 111 82 97 66 106 179 197 112 69 64 69 60 56 56 58 60 59 60 61 63 58 48 40 37 33 31 29 31 29 25 20 16 14 12 19
141 184 177 183 87 110 95 95 59 33 89 144 148 144 88 84 179 151 196 202 142 95 41 36 58 67 65 66 64 63 60 51 47 42 35 27 22 27 25 25 22 20 20 16 18 10 4 0 2
131 14 198 177 222 197 124 88 151 128 154 150 176 62 78 130 153 175 183 163 139 95 54 46 15 28 60 64 73 56 43 39 33 19 1 -4 -5 25 30 20 13 11 9 8 8 10 8 1 -1
261 180 159 222 210 254 274 145 201 294 275 222 205 213 123 214 166 183 187 167 126 97 65 53 11 20 54 41 41 29 13 11 8 -10 -19 -12 0 5 18 3 4 1 2 -3 9 19 19 21 20
237 140 90 524 383 350 390 206 103 184 188 187 179 204 229 153 145 180 141 104 86 80 62 95 71 72 31 36 -2 8 16 -10 -12 -3 -13 11 1 -10 9 -1 -4 -5 4 3 19 24 23 20 15
224 -106 156 458 553 408 301 251 133 162 98 72 99 157 127 109 123 123 91 69 83 83 74 91 80 85 41 27 6 7 8 21 25 23 12 10 0 -8 -6 -5 -6 -4 -1 -1 3 13 22 22 19
194 229 128 114 507 333 425 245 199 118 141 101 95 148 117 105 116 108 135 144 167 116 79 82 87 67 61 49 18 29 42 43 41 41 41 17 13 13 1 -2 -7 -11 -17 -7 -4 -2 -2 5 11
66 90 113 174 118 294 329 234 192 205 116 147 148 135 99 119 138 172 206 175 120 116 97 126 125 111 90 54 74 67 49 63 53 44 34 28 28 18 13 7 2 -9 -15 -10 -10 -4 3 8 11
16 19 109 156 152 120 239 309 129 143 85 95 104 95 100 126 168 195 171 131 124 108 98 130 117 117 101 119 95 88 94 79 55 45 43 31 15 21 20 16 5 -5 -9 -10 -9 -10 1 -10 4
28 92 130 147 151 -4 180 329 108 118 125 101 86 79 106 129 162 153 135 120 128 111 105 96 99 86 114 132 122 107 76 76 83 76 54 41 32 29 17 15 14 5 2 8 7 4 14 0 6
178 137 125 124 167 88 314 130 213 106 112 94 81 91 122 148 152 146 133 120 144 138 123 125 114 131 139 136 132 112 109 109 102 91 75 61 42 34 30 21 17 13 15 13 11 4 5 -1 -1
136 107 133 102 91 138 133 106 97 80 124 98 80 114 151 188 152 152 157 155 156 132 147 142 128 138 158 129 128 141 141 122 109 100 72 55 48 43 33 28 35 28 22 20 9 7 -3 -16 -9
118 125 88 146 129 88 -43 24 128 70 91 66 84 144 167 194 145 200 191 173 159 153 163 129 136 171 182 204 203 174 164 158 143 110 90 76 51 55 46 41 50 37 25 23 9 12 2 -23 -23
105 78 116 111 99 106 35 27 103 107 57 79 111 158 178 192 175 234 200 178 176 185 156 130 165 171 195 190 176 170 167 148 141 126 100 77 77 67 71 52 46 40 24 12 11 1 2 -11 -23
126 199 114 170 60 161 103 3 89 126 68 107 65 189 225 214 241 253 236 214 201 181 151 147 156 173 159 136 118 146 148 138 130 113 103 86 84 87 67 54 36 30 22 33 25 13 -7 -11 -28
113 116 136 140 160 161 216 82 115 74 81 125 80 193 249 257 252 272 256 232 213 183 153 151 154 149 149 197 264 278 226 174 140 114 102 83 76 71 59 49 39 33 37 35 30 22 17 -11 -4
146 80 64 113 196 212 165 196 116 55 74 227 165 189 288 292 263 261 249 233 211 186 176 186 176 168 209 200 222 196 164 151 129 126 88 85 73 60 63 62 51 53 47 61 46 49 24 26 12
136 197 36 157 139 193 221 185 154 76 165 247 228 180 316 328 316 285 246 239 223 254 223 220 207 213 189 162 142 143 196 195 164 116 100 68 60 71 94 77 62 55 66 71 64 48 42 37 41
133 88 147 152 149 187 187 166 -5 29 105 123 253 199 323 375 382 317 247 245 317 325 291 242 223 205 182 183 205 244 229 193 162 115 107 101 94 88 97 75 71 74 82 69 52 48 48 44 46
29 171 195 170 188 193 123 133 -63 82 66 153 237 248 329 424 437 366 302 338 406 342 284 252 234 236 245 261 265 233 202 177 161 165 166 145 128 116 104 84 79 77 71 65 66 66 62 55 53
127 121 206 136 174 143 165 93 79 111 173 190 192 277 389 475 457 394 359 411 375 311 279 253 255 261 265 268 253 226 214 206 202 192 161 146 127 107 92 89 83 77 72 74 78 88 84 80 93
79 105 73 107 145 122 120 115 126 177 208 254 263 375 422 498 484 435 410 410 348 296 246 267 265 256 253 252 235 232 229 223 192 174 153 138 117 95 104 88 87 78 78 87 91 108 102 111 119
138 151 116 127 158 164 123 70 9 57 170 212 334 401 419 468 467 437 413 366 292 258 268 285 240 255 257 238 234 230 228 211 191 174 160 129 95 94 83 78 82 84 97 99 105 115 115 132 150
238 155 166 75 118 110 156 100 140 61 176 215 295 390 368 390 403 390 361 300 266 282 321 277 274 292 277 272 256 234 218 211 185 156 130 111 99 86 91 90 92 99 103 104 117 124 135 150 154
182 226 173 154 133 122 92 129 130 135 161 205 250 290 337 328 316 307 331 300 335 346 338 322 316 289 267 252 238 219 194 174 160 142 123 101 91 91 92 95 105 106 108 119 135 148 155 156 159
Wind_Speed
58 55 52 42 43 47 55 60 55 22 26 24 14 21 15 26 27 21 27 29 28 28 24 20 24 28 32 35 37 39 41 43 44 46 47 49 50 52 53 54 54 54 54 53 53 52 52 51 51
59 58 44 43 52 53 56 65 40 27 18 17 17 20 22 23 24 21 22 26 25 25 22 21 25 29 32 35 37 38 40 42 44 45 47 49 51 53 53 54 55 56 56 56 56 55 54 52 50
61 58 44 48 57 63 55 45 28 18 14 19 23 26 22 23 16 16 21 26 25 21 20 22 25 29 31 33 35 37 39 41 43 45 47 50 52 53 54 55 56 57 57 58 58 58 57 54 46
52 47 50 62 70 68 67 41 14 19 23 18 12 19 22 29 16 15 19 20 20 19 19 21 24 27 29 31 34 36 38 40 42 45 48 50 52 53 54 55 56 56 57 58 58 58 58 54 48
51 54 65 68 76 74 43 37 23 25 29 26 13 17 20 22 20 20 20 22 21 19 20 20 24 26 27 29 31 34 36 39 42 44 46 49 50 52 52 53 55 56 57 57 58 57 56 55 52
61 55 72 81 73 75 47 41 32 31 25 26 25 19 22 8 14 16 13 14 16 20 20 20 22 24 26 28 30 33 35 38 40 43 45 47 49 50 51 52 53 54 56 57 58 58 57 54 54
76 62 79 75 70 73 52 39 43 33 27 26 14 26 16 4 7 9 9 13 13 16 20 21 21 22 24 26 28 31 34 37 39 41 42 45 47 49 50 51 52 53 54 55 57 58 58 55 55
69 61 74 71 71 62 44 42 45 31 31 17 24 31 22 2 5 6 8 11 12 14 17 22 22 22 22 23 26 30 33 36 38 39 40 42 45 48 50 50 51 52 53 55 56 57 58 58 53
66 84 72 65 63 49 43 43 39 35 25 28 31 30 7 7 6 5 6 9 11 14 14 18 21 22 22 22 25 28 31 34 36 38 38 40 45 44 47 50 50 52 51 53 56 57 58 59 59
83 97 68 50 44 52 53 49 45 40 32 35 29 12 2 4 3 1 3 6 9 11 12 15 17 19 22 22 24 26 28 30 33 35 36 39 42 45 44 48 49 50 55 51 56 58 58 58 58
83 107 73 65 44 48 55 56 45 48 42 41 30 15 8 5 7 4 4 6 7 10 11 12 15 17 19 20 22 25 28 31 36 39 39 40 42 41 46 48 50 52 54 55 55 56 57 58 58
85 88 86 72 70 47 54 58 59 52 46 44 20 14 11 9 11 9 7 8 7 9 9 11 13 16 17 19 21 24 27 30 35 39 42 41 44 46 47 49 51 53 54 55 56 56 56 57 59
86 79 88 86 89 80 65 64 65 57 40 28 14 15 14 12 14 15 11 8 8 7 7 10 10 12 15 17 20 24 26 29 33 37 41 43 44 45 48 49 52 53 54 54 55 57 57 58 61
74 82 79 81 82 93 78 73 58 54 37 30 25 20 17 14 16 15 14 12 8 4 6 9 8 11 13 16 19 22 26 29 32 35 39 41 43 45 47 50 52 53 55 56 57 58 59 59 62
86 71 70 75 72 73 77 82 68 56 35 33 32 25 19 17 18 19 16 13 6 3 6 9 11 11 12 15 19 21 24 27 30 33 37 40 43 44 45 48 51 52 54 57 58 59 61 60 64
67 68 90 77 70 66 66 90 62 58 44 39 37 30 24 21 22 20 18 15 6 1 3 8 9 11 13 15 18 19 23 25 28 31 35 39 42 44 45 47 50 51 54 57 59 61 63 63 67
77 91 90 79 68 64 61 79 60 45 45 45 44 36 28 25 25 22 20 15 9 4 1 4 7 10 12 15 17 19 22 24 26 29 33 37 41 43 44 47 50 51 54 58 60 63 65 65 69
95 102 87 87 79 82 91 65 62 46 47 51 49 43 37 31 32 24 21 16 11 7 2 1 4 7 10 13 15 18 21 23 26 29 32 37 40 42 43 46 50 51 54 59 61 65 67 67 72
83 85 87 77 70 87 87 76 70 59 55 59 54 49 42 36 35 26 23 18 14 9 4 2 1 5 7 9 11 13 15 19 23 28 32 35 39 42 44 46 49 52 55 59 63 65 70 72 76
93 84 92 69 62 74 77 86 82 63 64 59 68 52 43 38 35 30 26 22 18 13 7 4 0 3 5 7 9 11 13 16 21 26 31 34 38 42 44 46 49 53 56 60 65 68 72 73 78
90 90 85 79 58 66 65 92 82 85 74 59 70 55 43 37 36 32 28 24 19 16 11 5 2 0 4 7 12 12 15 17 19 23 29 33 36 39 42 45 49 53 58 62 68 70 77 81 79
94 72 76 67 63 84 62 88 86 92 87 54 63 60 41 35 34 33 29 26 22 16 10 5 4 4 6 5 6 7 11 13 17 22 26 31 34 37 42 46 51 56 61 66 70 73 78 80 87
80 70 55 54 58 59 71 81 76 63 71 62 60 62 44 38 35 33 30 25 21 15 11 6 6 6 6 5 4 5 11 14 19 21 25 28 32 36 42 49 54 60 64 69 74 78 80 80 83
44 47 45 50 58 87 81 76 70 58 48 59 51 49 45 38 36 32 29 24 19 14 11 9 8 8 5 5 6 9 11 15 18 22 27 32 34 37 43 51 57 63 68 73 75 78 80 81 83
56 65 69 73 82 92 64 73 70 57 77 56 33 37 42 38 35 32 30 26 20 17 13 8 7 7 7 7 9 10 12 15 19 26 31 36 40 44 50 56 62 67 69 72 75 78 80 82 83
67 61 70 84 83 78 55 89 96 78 54 41 35 32 34 36 35 32 30 26 22 18 13 9 6 5 5 7 9 12 15 19 24 29 34 38 43 48 53 59 65 69 71 74 75 77 78 77 81
76 90 76 63 59 68 66 77 66 60 58 45 33 27 30 34 33 31 29 26 22 18 14 9 6 4 4 7 10 14 18 23 27 32 36 41 47 52 58 64 68 71 73 75 77 78 79 79 80
70 71 84 74 83 87 75 79 82 69 53 42 35 29 29 29 30 29 28 24 20 16 12 7 5 4 5 8 11 16 21 26 31 36 42 47 51 56 63 68 71 73 76 77 78 80 81 83 84
71 76 73 74 82 86 81 76 50 58 38 37 34 28 28 28 28 27 24 21 18 14 11 7 4 5 7 10 14 18 23 29 35 41 45 51 57 63 68 72 75 78 79 79 81 82 85 86 89
82 77 73 83 89 84 65 77 49 49 31 30 29 26 25 25 24 23 22 19 16 13 9 6 4 6 9 12 16 21 26 32 39 44 50 55 62 66 71 74 77 79 80 81 84 87 88 89 90
Wind_Direction
281 284 285 284 265 262 257 253 259 280 278 287 328 317 357 332 320 357 66 70 72 70 59 25 21 21 25 27 31 33 35 35 33 29 25 25 25 25 25 25 27 31 29 26 21 10 358 353 350
278 278 281 273 258 255 257 248 262 271 282 302 313 316 326 328 350 42 56 77 69 67 53 30 28 29 27 30 34 35 35 34 33 30 27 26 25 24 24 25 29 32 35 34 32 30 13 358 348
276 270 270 262 254 247 253 271 252 267 281 286 292 304 330 333 36 37 69 74 67 56 38 31 31 30 31 33 34 35 33 33 32 31 28 27 27 26 26 26 27 28 30 33 36 34 35 11 346
272 267 266 254 247 244 251 269 247 259 277 287 306 308 321 308 21 53 75 71 64 50 36 26 28 29 31 34 36 35 35 33 31 31 30 28 27 27 28 28 29 28 28 30 33 32 25 8 348
263 260 252 251 247 242 268 266 261 261 272 273 288 296 314 314 57 80 82 83 68 53 45 27 29 32 34 36 37 37 35 32 30 28 26 25 25 26 25 25 25 26 29 29 28 26 17 5 351
250 253 247 245 247 245 262 260 259 265 270 270 278 292 304 12 64 87 64 48 33 59 47 27 25 33 37 41 39 37 34 30 27 24 24 23 22 23 22 22 21 21 21 22 22 21 16 4 356
241 250 244 246 249 248 255 259 255 257 264 269 277 283 301 353 32 47 4 26 35 38 53 43 31 31 39 41 39 37 34 29 25 24 25 25 24 22 20 19 19 18 16 13 11 12 14 18 5
243 254 244 245 248 254 253 252 256 254 264 271 275 278 282 242 71 31 13 12 11 12 43 61 51 50 42 37 40 38 33 29 27 27 29 29 28 23 18 17 17 15 13 11 7 4 3 5 15
245 244 243 242 245 256 260 250 259 265 255 272 275 284 304 132 103 63 6 352 349 349 14 52 69 63 55 47 43 38 35 34 34 32 31 29 17 19 21 18 17 14 10 8 2 353 354 356 359
240 239 245 248 258 257 256 254 253 258 254 264 270 300 71 134 180 135 314 323 337 6 12 45 52 62 63 54 58 45 39 38 35 33 33 29 27 24 23 18 15 13 3 10 359 355 352 353 356
244 234 237 242 258 266 255 255 261 256 256 259 256 248 249 209 247 263 295 307 348 14 26 44 59 62 65 60 55 37 33 26 17 13 18 22 23 28 23 20 16 10 5 0 1 358 358 355 355
244 243 236 245 249 266 259 263 256 256 263 263 241 236 242 230 249 256 273 292 330 354 25 47 57 66 55 49 49 38 26 27 22 10 8 16 18 17 21 20 18 13 6 2 359 358 359 359 354
246 246 244 243 249 252 268 258 254 257 258 266 231 243 240 241 251 265 274 291 319 353 17 31 32 24 49 50 35 26 28 26 22 17 15 17 19 19 18 19 16 14 10 8 4 360 358 357 350
250 248 249 244 242 244 254 259 254 256 253 252 250 251 246 243 248 256 262 272 294 3 61 41 40 19 22 24 27 26 25 25 26 25 19 19 23 21 16 15 14 12 7 3 2 358 354 355 349
250 248 246 243 241 248 249 255 249 254 250 249 251 250 249 248 248 252 257 262 273 341 58 76 74 63 38 36 30 30 34 32 29 27 23 21 18 18 18 15 12 11 9 3 1 358 353 352 346
246 246 241 241 238 246 241 240 256 252 246 249 250 249 248 247 249 252 254 257 259 282 56 62 62 64 54 44 39 38 33 30 29 27 22 19 15 15 15 14 11 9 6 2 358 354 349 348 343
242 239 240 242 238 243 238 247 265 246 243 249 250 249 248 247 250 250 248 249 250 241 102 33 60 63 54 58 49 40 34 33 31 27 22 19 15 14 16 12 7 6 3 360 356 351 346 344 339
236 237 243 241 237 235 236 252 248 250 249 252 250 248 249 247 249 241 243 246 249 250 266 16 46 48 48 40 35 32 33 29 25 22 17 14 14 12 12 11 6 4 1 357 355 350 344 341 335
243 243 245 243 243 236 244 251 247 251 256 254 250 248 249 247 249 241 239 241 242 245 240 210 41 51 47 43 47 44 30 26 20 16 15 13 11 11 9 8 5 1 358 355 351 348 342 339 335
241 245 243 250 246 239 245 247 245 253 251 255 249 247 245 243 241 237 236 239 240 242 235 241 271 46 40 55 54 45 35 25 21 16 13 13 10 7 7 5 3 359 356 352 348 343 339 338 336
240 240 244 243 243 246 250 244 247 247 252 257 250 248 241 235 235 233 233 235 236 238 237 232 238 18 21 17 29 29 18 14 11 12 9 8 9 8 5 3 360 356 353 348 344 340 336 331 333
238 244 248 241 237 239 240 242 244 241 247 246 247 245 234 228 232 233 232 233 235 235 231 249 277 295 334 1 2 357 353 354 2 5 7 6 6 5 3 359 355 351 347 343 340 339 335 332 328
244 249 245 240 243 245 240 244 250 252 249 242 243 242 234 226 225 225 228 229 234 228 239 252 286 308 319 339 1 5 353 2 1 5 1 3 3 2 359 353 349 345 343 339 336 334 333 332 329
240 245 240 247 247 240 239 244 245 245 244 244 245 241 237 223 224 224 228 226 226 225 240 261 281 305 327 345 6 353 354 356 356 354 353 353 354 355 353 348 345 342 338 336 335 334 332 330 328
234 233 232 236 236 236 242 239 237 250 241 251 232 235 232 223 218 216 218 218 218 224 235 247 276 301 324 349 356 352 353 354 351 348 347 346 346 345 343 342 340 338 337 336 335 333 332 330 328
225 223 228 232 233 237 242 238 236 244 255 263 263 231 225 220 219 215 218 221 218 223 225 246 260 294 326 347 350 352 350 347 346 345 345 344 342 341 340 339 337 336 335 334 333 332 331 330 329
232 232 234 253 248 243 243 246 253 252 253 266 262 221 215 216 217 214 217 222 222 222 226 229 246 285 322 337 343 342 344 343 342 343 343 341 340 338 337 335 334 334 333 332 332 331 329 328 327
238 237 234 241 238 238 244 246 246 250 257 258 250 229 219 217 215 215 217 218 221 221 223 221 243 277 320 332 338 338 339 340 340 340 338 337 336 335 333 333 332 332 331 331 330 329 328 327 326
235 236 238 242 245 243 246 250 264 262 257 249 247 232 217 216 215 209 212 210 214 213 215 213 242 289 317 329 333 335 337 338 337 336 335 335 333 332 331 331 330 330 329 329 328 328 327 326 325
235 237 235 239 240 246 255 253 270 274 258 250 240 231 225 219 210 201 199 203 202 203 209 235 265 299 317 327 333 334 335 335 335 334 333 332 331 331 330 330 329 329 329 329 328 327 326 325 325